Temperature
21 20 20 21 26 28 29 28 28 28 27 25 25 25 26 26 26 25 21 21 20 20 19 20 19 19 19 19 20 20 20 20 20 20 20 19 19 19 19 19 19 19 18 18 18 18 18 18 18
20 20 21 24 28 29 28 28 28 28 26 24 24 24 25 24 23 21 20 20 20 20 19 19 19 19 19 19 19 20 20 20 20 20 19 19 19 19 19 19 19 19 18 18 18 18 18 18 18
20 20 24 28 29 29 28 28 28 27 25 24 24 24 25 24 21 20 20 20 20 20 19 19 19 19 19 19 19 19 20 20 19 19 19 19 19 19 19 19 19 18 18 18 18 18 18 18 17
21 23 25 28 29 29 28 28 28 26 25 24 25 25 23 21 20 20 20 20 20 19 19 19 19 19 19 19 19 19 19 19 19 19 19 19 19 19 18 18 18 18 18 18 18 18 18 18 17
22 26 28 29 29 29 29 27 27 27 26 25 25 25 23 20 20 20 20 20 20 20 19 18 19 19 19 19 19 19 19 19 19 19 19 19 19 18 18 18 18 18 18 18 18 18 18 18 17
25 27 29 29 29 29 29 27 27 26 26 25 24 25 22 19 19 19 20 20 20 20 19 18 19 19 19 19 19 19 19 19 19 19 19 18 18 18 18 18 18 18 18 17 17 17 17 17 17
26 28 29 29 29 29 28 27 27 27 26 25 24 25 22 19 19 19 19 20 20 20 19 18 18 18 18 18 18 19 19 19 19 19 18 18 18 18 18 18 18 18 18 18 17 17 17 17 17
25 28 29 29 28 29 28 27 26 25 26 23 23 24 23 19 18 19 19 19 19 19 19 18 18 18 18 18 18 18 19 19 19 18 18 18 18 18 18 17 18 18 17 17 17 17 17 17 17
24 28 29 29 28 29 28 27 26 24 24 23 23 23 22 19 18 18 19 19 18 18 19 19 18 18 18 18 18 18 18 18 18 18 18 18 17 17 17 17 17 17 17 17 17 17 17 17 17
26 28 29 29 29 29 28 27 26 25 25 24 22 21 20 19 18 18 19 19 18 18 18 18 18 18 18 18 18 17 17 18 17 17 17 17 17 17 17 17 17 17 17 17 17 17 17 17 17
27 28 29 29 28 27 27 27 26 26 26 25 23 21 19 19 19 19 19 19 19 18 18 18 18 18 18 18 18 18 17 17 17 17 17 17 17 17 17 17 17 17 17 17 17 17 16 16 17
28 28 28 28 27 27 27 26 26 25 24 22 21 21 19 19 19 19 19 19 19 18 18 18 17 18 18 18 18 17 17 17 17 17 17 17 17 17 17 17 17 16 16 16 16 16 16 16 16
28 28 27 27 26 26 26 26 25 24 22 21 21 20 19 19 19 19 19 19 18 18 18 17 17 18 18 18 18 17 17 17 17 17 17 17 17 17 16 16 16 16 16 16 16 16 16 16 16
28 28 27 27 27 26 26 26 25 24 21 21 20 20 19 19 19 19 18 18 18 18 18 17 18 18 18 18 18 17 17 17 17 17 17 17 16 16 16 16 16 16 16 16 15 16 15 16 16
27 28 29 28 27 26 26 26 25 23 21 21 20 20 19 19 18 18 18 18 18 18 18 18 18 18 18 17 17 17 17 17 16 16 16 16 16 16 16 15 15 15 15 15 15 15 15 15 16
28 29 29 29 27 26 26 26 25 22 22 21 20 19 18 18 18 18 18 18 18 17 17 18 17 18 18 17 17 17 17 16 16 16 16 16 16 15 15 15 15 15 15 15 15 15 15 15 15
30 29 29 28 27 27 26 26 25 22 22 21 20 19 18 18 18 18 18 18 18 18 18 18 17 17 17 17 17 17 17 16 16 16 16 16 15 15 15 14 14 14 14 14 15 15 15 15 15
29 29 29 28 28 26 26 26 25 23 22 22 20 19 18 18 18 18 18 17 17 18 18 18 17 17 17 17 17 17 16 16 16 15 16 15 15 15 14 14 14 14 14 14 14 14 14 14 14
29 28 28 28 27 26 26 26 25 23 22 22 21 20 19 18 18 18 18 17 17 17 17 17 17 17 17 17 17 16 16 16 16 15 15 15 15 15 14 14 14 14 14 13 14 14 14 14 14
29 28 29 28 26 26 26 26 25 24 23 22 21 20 19 18 18 18 17 17 17 18 18 17 17 17 17 17 17 16 16 16 16 15 15 15 15 14 14 14 14 13 13 13 13 13 14 14 14
29 29 28 28 27 26 26 26 25 24 23 22 21 21 20 19 18 18 17 17 17 17 18 17 17 17 17 17 17 16 16 16 16 15 15 15 15 14 14 14 13 13 13 13 13 13 13 14 14
29 29 28 27 27 28 26 27 26 25 24 23 22 21 20 20 19 18 18 18 18 18 17 17 17 17 17 17 17 16 16 16 16 15 15 15 15 14 14 14 13 13 13 13 13 13 13 13 14
29 28 27 27 27 27 27 27 27 26 25 25 23 22 21 20 19 19 18 18 18 18 17 17 17 17 17 17 17 17 16 16 16 15 15 15 15 14 14 14 13 13 13 13 13 13 13 13 13
27 27 27 27 28 27 27 26 27 27 26 26 24 22 21 20 19 19 18 18 18 17 17 17 17 17 17 17 17 17 17 16 16 16 15 15 15 14 14 14 13 13 13 13 12 12 12 13 13
28 28 28 28 28 27 26 27 27 27 26 26 25 23 21 20 20 19 18 18 18 17 17 17 17 18 18 18 17 17 17 17 16 16 16 15 15 15 14 14 14 13 13 13 12 12 12 12 12
28 28 27 26 27 28 27 27 28 27 26 25 24 23 22 21 20 20 19 18 18 18 17 17 17 18 18 18 18 18 17 17 16 16 16 16 15 15 15 14 14 13 13 13 13 12 12 12 12
28 29 29 28 27 27 28 28 28 26 26 25 25 24 23 22 21 20 20 19 19 18 18 18 18 18 18 18 18 18 18 17 17 17 16 16 16 15 15 15 14 14 13 13 13 13 12 12 12
28 29 28 28 26 26 27 27 28 27 26 26 25 24 23 22 22 21 20 20 19 19 18 18 18 18 18 18 18 18 18 18 17 17 17 16 16 16 15 15 15 14 14 13 13 13 12 12 12
27 27 28 28 27 26 26 27 28 27 27 26 26 25 24 23 23 22 21 20 20 20 19 19 19 19 19 19 19 19 18 18 18 17 17 17 16 16 16 15 15 15 14 14 14 13 13 13 12
28 28 27 27 26 26 27 27 27 27 27 26 26 25 24 24 23 23 22 21 21 20 20 19 19 19 19 19 19 19 19 19 18 18 18 17 17 16 16 16 15 15 14 14 14 14 13 13 13
Wind_Speed
10 7 5 4 5 4 1 1 1 1 2 2 2 2 3 2 1 4 7 16 18 19 21 21 17 17 16 16 16 16 16 15 15 14 13 12 11 10 9 9 9 8 9 9 9 9 9 9 9
6 4 5 5 6 4 0 1 2 1 1 3 3 3 3 2 3 6 10 16 19 20 21 21 19 17 16 16 16 15 15 15 14 13 12 11 10 9 9 9 8 8 8 8 8 8 8 8 8
5 6 5 5 5 4 2 2 3 0 3 4 3 3 1 1 4 6 10 19 20 19 19 20 20 18 17 16 15 15 14 14 13 12 11 10 9 9 8 8 7 7 7 7 7 7 7 7 7
5 5 5 7 4 1 3 4 3 2 4 4 4 2 1 3 2 7 15 20 20 19 19 20 19 18 17 16 15 14 14 13 12 11 10 9 8 8 7 7 6 6 6 6 6 6 5 5 5
6 5 7 6 2 1 2 3 2 3 3 4 5 2 2 3 5 12 17 19 19 19 18 21 18 18 16 16 15 14 13 12 11 10 9 8 7 7 6 6 5 5 5 5 5 4 4 4 4
4 5 6 3 1 1 1 1 2 3 3 3 4 3 3 4 9 14 17 17 18 18 18 20 17 16 16 15 14 13 12 11 10 9 8 7 6 5 5 4 4 4 4 4 4 3 3 3 2
5 4 3 2 1 0 1 1 3 3 4 3 3 3 4 7 10 14 16 15 16 17 16 17 18 16 14 13 13 12 11 10 9 8 7 6 5 4 4 3 3 2 3 3 2 2 3 2 2
5 4 2 1 2 2 1 1 2 4 2 2 3 3 5 9 12 13 15 15 14 14 14 15 15 15 15 14 12 11 10 9 8 7 6 5 5 5 4 5 3 2 2 2 2 2 3 2 2
5 5 1 2 3 4 2 3 1 1 2 3 3 1 6 13 14 15 15 15 14 13 12 12 13 12 12 12 13 11 10 9 8 8 6 5 5 4 5 2 3 2 2 2 3 3 3 4 5
5 4 3 4 6 8 6 5 4 4 5 6 5 4 10 15 15 16 17 17 17 15 13 10 11 11 11 10 11 9 9 8 6 5 5 3 1 0 1 5 3 2 2 3 3 3 5 7 5
5 6 6 6 7 8 8 6 4 6 6 4 6 9 13 15 15 16 16 16 16 15 13 12 10 10 9 7 8 6 6 6 5 4 3 2 1 2 1 1 3 3 4 3 4 5 4 4 2
7 8 9 9 8 8 7 6 4 5 3 1 3 10 14 15 15 15 15 15 14 14 13 12 11 9 8 8 7 6 5 5 4 5 2 2 1 0 0 1 1 2 2 1 2 2 2 2 2
10 9 8 8 8 6 6 5 5 3 2 2 5 11 14 13 13 12 12 12 13 13 12 11 10 9 8 7 6 6 6 6 6 4 4 2 1 0 0 0 1 2 1 2 2 1 1 2 3
7 9 10 8 6 4 6 5 4 2 3 4 7 10 12 11 11 12 12 12 12 12 11 10 10 10 9 7 6 6 7 6 6 5 5 2 2 2 1 0 0 1 2 1 1 0 1 1 1
9 11 9 5 4 3 6 7 4 1 4 5 7 10 11 11 10 11 11 11 11 11 11 10 10 10 9 8 8 7 7 7 6 6 6 3 3 3 1 1 0 1 1 2 2 1 1 1 1
8 8 6 1 3 3 6 5 4 3 5 5 7 10 10 10 10 10 10 9 9 9 10 10 10 10 10 8 8 8 7 7 6 6 6 5 4 3 1 1 2 1 1 1 1 1 1 0 1
4 7 9 3 3 4 6 7 2 4 5 6 7 10 10 10 10 9 10 10 10 10 10 10 9 10 10 9 8 9 8 7 6 6 5 5 4 2 2 2 3 0 0 0 1 1 2 1 1
11 11 9 8 2 6 8 7 2 5 6 7 8 9 10 11 11 11 10 11 10 10 10 10 10 10 10 9 8 7 7 7 6 6 6 5 4 2 2 2 2 1 1 1 1 1 1 2 2
11 11 11 7 3 6 7 7 3 5 7 8 9 10 10 10 10 10 10 11 11 11 11 11 11 11 10 9 9 9 8 7 6 6 6 5 4 3 2 2 2 1 1 1 0 1 1 1 2
10 10 9 4 1 5 7 6 3 6 8 8 9 10 11 11 11 12 12 11 12 12 12 12 12 12 12 9 8 7 7 6 6 5 6 5 4 3 3 2 1 2 2 1 1 1 2 0 1
9 9 9 9 4 5 7 4 4 6 8 8 9 10 10 12 13 13 14 14 12 12 13 12 12 13 12 11 8 7 7 6 6 6 6 6 5 4 2 2 1 1 0 2 1 1 1 1 0
8 5 6 7 8 5 4 4 4 5 7 10 11 11 11 11 12 13 14 14 14 13 13 13 13 13 12 12 11 11 9 7 7 6 6 6 7 6 5 4 2 1 0 1 1 2 1 2 1
5 3 5 6 7 6 2 6 3 4 5 8 11 12 12 12 13 13 15 15 14 14 13 13 13 13 13 12 11 11 9 7 6 6 6 7 7 7 7 6 4 3 2 1 1 1 1 1 2
2 4 6 7 7 3 5 5 3 2 1 4 9 12 13 13 12 13 13 13 13 14 14 13 14 13 13 13 12 12 10 8 7 7 7 7 6 7 9 8 6 6 4 3 3 2 2 1 1
6 8 7 5 3 4 3 4 4 3 1 2 7 11 13 13 13 13 15 15 15 15 15 15 15 14 14 14 13 13 11 10 10 9 8 8 6 7 9 8 8 7 6 5 4 4 3 3 2
5 8 7 8 8 7 1 3 4 3 2 2 6 10 13 14 14 14 16 16 16 17 16 16 16 15 15 14 14 13 12 10 9 10 8 8 7 6 7 9 9 8 8 7 6 5 5 4 4
5 6 6 8 8 7 3 2 2 4 4 5 7 10 13 14 15 15 16 16 16 17 17 17 16 16 16 16 14 13 12 11 10 9 9 8 7 6 8 9 9 9 9 8 7 7 6 6 6
5 5 5 6 7 7 5 3 2 3 4 6 8 10 12 14 14 15 16 16 16 16 16 16 17 16 16 15 14 12 13 12 11 11 11 9 9 8 9 10 10 10 9 9 9 8 8 8 7
6 5 6 6 6 8 7 3 5 2 3 5 7 9 11 13 14 15 15 16 16 16 16 17 17 16 15 15 14 13 13 13 12 12 12 11 10 10 11 11 11 11 11 11 10 11 9 10 9
8 8 7 7 6 6 8 3 7 4 3 3 5 7 9 11 13 14 15 15 16 16 16 16 16 16 16 15 14 14 13 13 13 13 13 12 12 12 12 12 12 12 12 11 12 12 11 11 11
Wind_Direction
187 201 231 246 242 233 304 48 311 208 184 173 177 201 191 176 187 105 128 153 152 152 150 155 154 150 147 143 139 137 135 134 131 129 128 126 123 119 116 111 106 100 95 91 90 89 88 87 87
188 211 237 244 258 256 72 23 297 304 117 145 180 196 188 164 75 111 143 152 153 153 153 158 152 152 149 145 141 139 137 135 133 131 130 127 125 122 118 114 110 104 99 95 92 91 89 87 86
203 236 259 253 258 293 349 13 336 51 162 183 189 212 256 110 127 144 152 154 155 152 153 149 153 153 152 148 145 142 139 138 136 136 134 132 130 127 122 118 114 110 106 103 98 95 92 88 84
219 231 240 251 257 336 331 341 337 199 183 205 216 191 150 53 123 146 150 156 153 151 154 149 156 155 153 150 147 144 142 141 141 140 139 137 135 132 126 122 117 112 109 109 106 101 96 90 81
240 254 243 240 252 318 322 335 299 222 198 202 216 213 133 82 121 143 153 156 153 155 155 150 157 154 153 151 150 149 147 146 145 144 142 139 135 135 134 126 120 118 115 112 110 110 108 101 87
235 249 254 258 158 303 311 326 238 235 223 199 217 220 99 109 137 147 153 158 156 155 154 147 154 154 154 154 154 152 149 148 147 146 145 139 133 131 133 129 124 118 121 119 119 121 120 114 100
268 263 283 307 330 130 30 331 269 254 235 206 220 196 127 133 142 150 154 157 155 155 152 153 160 159 157 155 155 152 149 149 149 149 146 142 144 146 147 148 152 150 145 142 142 142 137 129 125
283 270 236 268 308 356 44 299 314 282 255 138 212 209 151 145 147 151 153 155 155 156 155 155 163 160 165 161 156 152 151 150 149 151 150 151 159 166 169 191 170 192 194 186 180 172 161 151 142
266 256 307 0 321 325 336 287 284 251 215 195 198 247 120 143 152 154 155 155 157 159 160 161 158 160 167 162 153 157 153 151 160 159 153 185 196 179 182 142 121 189 203 203 194 186 183 187 180
248 276 4 341 313 309 310 291 279 233 223 209 190 156 137 151 161 164 164 164 164 163 163 162 160 162 165 158 152 162 164 153 170 149 162 181 147 283 165 120 145 164 175 187 183 191 200 223 205
251 282 319 309 308 302 294 278 257 257 251 228 203 169 159 165 172 174 172 171 166 164 164 165 164 164 162 155 156 156 150 145 147 132 139 127 187 215 219 195 172 183 204 217 177 207 222 219 228
261 275 285 291 305 295 291 286 265 259 299 60 197 174 170 174 179 179 177 173 167 166 166 167 163 162 164 160 152 156 150 147 138 127 150 153 159 250 340 273 260 220 200 202 237 213 211 220 213
254 278 289 287 286 288 279 269 272 251 185 175 173 174 178 179 179 178 175 171 169 168 168 168 165 162 160 155 160 156 151 147 134 127 109 95 100 63 100 1 291 257 220 203 221 220 203 223 214
287 283 282 280 280 263 263 257 247 230 179 185 178 177 179 177 179 176 174 174 175 172 169 167 170 167 163 161 160 153 149 139 132 124 110 94 77 62 21 167 267 238 240 255 248 192 205 224 221
277 276 267 241 249 256 267 248 228 177 175 181 177 173 172 174 179 181 180 180 176 172 168 170 172 169 168 170 165 154 149 141 130 119 113 99 78 67 31 54 141 77 168 171 198 177 193 214 218
254 265 288 156 236 234 264 298 102 160 186 179 170 168 168 171 179 179 180 184 177 172 168 175 177 168 169 165 161 152 145 135 130 128 118 101 79 64 25 45 63 62 176 177 167 228 226 276 281
248 319 333 345 213 249 260 301 100 178 193 177 172 172 172 172 180 182 182 185 184 174 171 175 175 169 169 160 156 147 141 140 139 134 123 113 99 72 49 51 53 217 128 151 265 79 305 289 304
335 327 326 330 300 260 270 287 241 186 201 186 174 174 176 179 183 185 184 184 181 173 173 174 171 169 164 156 152 148 149 152 150 141 127 131 119 88 53 86 59 351 111 92 49 45 6 312 291
307 308 314 329 328 280 282 287 256 191 201 193 183 180 182 184 186 186 186 181 174 175 175 174 173 167 166 164 165 163 164 164 159 152 143 147 134 113 61 67 91 8 75 26 348 299 182 283 295
293 300 318 329 300 284 297 286 241 202 203 200 193 189 185 181 186 188 188 181 180 178 179 176 175 172 176 172 170 169 163 171 164 158 154 168 160 153 132 79 105 82 100 98 39 326 308 17 324
304 308 325 325 305 236 290 239 176 189 200 201 202 198 193 189 186 185 189 186 184 181 182 180 176 179 180 171 169 163 162 174 173 178 179 182 180 176 145 145 101 107 227 99 63 345 319 315 85
307 337 309 301 297 327 318 324 147 184 202 206 203 200 201 195 189 186 188 187 187 186 181 180 179 179 177 177 183 182 187 187 186 188 180 181 189 190 182 178 171 204 124 128 180 74 333 298 293
315 325 284 282 289 294 306 310 87 173 216 210 204 200 199 194 191 188 187 185 185 181 179 181 181 182 181 187 191 196 201 196 186 186 178 195 192 198 198 196 193 202 209 161 65 128 316 290 321
206 236 239 241 258 308 14 316 19 47 288 204 192 193 193 190 187 185 183 181 179 179 179 181 183 185 186 192 197 206 206 202 196 198 194 203 198 201 201 204 206 213 213 198 210 214 213 314 335
229 276 287 285 287 1 47 300 15 41 33 194 180 182 185 186 184 181 180 180 180 183 184 185 186 188 191 195 201 207 209 207 208 210 206 213 210 205 199 206 207 215 213 215 217 222 245 228 232
255 282 300 314 325 333 216 331 36 88 117 165 172 172 177 182 184 185 184 184 185 186 187 188 190 192 194 199 204 208 209 215 218 215 219 213 222 217 197 203 209 215 215 217 216 230 224 227 235
258 264 304 290 288 291 322 344 134 137 157 164 168 171 178 184 186 188 187 188 188 189 190 192 194 196 199 202 203 207 210 219 223 213 217 220 216 210 199 206 210 213 215 220 221 234 232 229 237
280 277 263 282 298 300 305 299 27 136 162 169 178 180 180 184 187 189 190 191 191 192 192 195 198 201 203 204 206 208 210 213 217 219 218 218 211 208 204 208 211 214 215 217 224 232 227 233 237
208 227 257 275 289 296 305 338 71 103 159 175 182 187 186 187 189 189 190 192 192 192 193 196 200 203 205 208 209 213 212 212 214 217 217 213 212 206 208 210 213 217 219 219 222 236 231 232 237
249 250 241 263 272 268 291 319 103 102 133 165 173 182 189 191 190 189 189 190 193 195 196 198 202 206 208 209 210 213 215 214 215 218 218 213 211 210 211 213 216 220 222 221 224 231 233 233 236
Height
1528 1529 1530 1532 1525 1515 1514 1512 1510 1511 1514 1517 1519 1519 1518 1518 1521 1527 1529 1530 1534 1538 1541 1544 1547 1551 1553 1555 1557 1559 1560 1561 1562 1563 1564 1565 1566 1566 1567 1567 1567 1568 1568 1568 1568 1569 1569 1569 1569
1531 1531 1532 1528 1516 1515 1515 1511 1511 1511 1515 1520 1521 1521 1520 1521 1524 1526 1527 1530 1534 1539 1542 1545 1548 1551 1554 1557 1558 1560 1562 1563 1564 1565 1565 1566 1567 1567 1568 1568 1568 1569 1569 1570 1570 1570 1570 1570 1571
1531 1531 1531 1519 1512 1513 1513 1510 1510 1514 1518 1520 1520 1521 1521 1522 1525 1526 1527 1530 1535 1540 1543 1545 1549 1552 1555 1558 1560 1561 1563 1564 1565 1566 1567 1567 1568 1568 1569 1569 1570 1570 1570 1571 1571 1572 1572 1572 1573
1533 1532 1528 1517 1512 1510 1511 1511 1512 1515 1518 1520 1520 1520 1522 1525 1525 1526 1527 1532 1536 1540 1544 1546 1550 1553 1556 1558 1561 1562 1564 1565 1566 1567 1568 1568 1569 1570 1570 1571 1571 1571 1572 1572 1572 1573 1573 1574 1574
1533 1528 1518 1513 1511 1511 1511 1513 1514 1514 1516 1519 1520 1518 1522 1525 1524 1526 1529 1533 1537 1542 1546 1548 1551 1554 1557 1560 1562 1563 1564 1566 1567 1568 1569 1569 1570 1571 1571 1572 1572 1572 1573 1573 1574 1574 1574 1575 1576
1530 1523 1515 1513 1511 1511 1511 1514 1515 1515 1516 1519 1520 1519 1523 1525 1525 1528 1531 1535 1539 1543 1547 1549 1552 1555 1558 1560 1562 1564 1565 1566 1568 1569 1569 1570 1571 1571 1572 1573 1573 1573 1573 1574 1574 1575 1575 1576 1576
1528 1518 1514 1513 1512 1511 1512 1514 1514 1514 1516 1519 1520 1520 1523 1526 1527 1530 1533 1537 1541 1544 1548 1550 1553 1556 1558 1561 1563 1564 1566 1567 1568 1569 1570 1571 1571 1572 1573 1573 1574 1574 1574 1574 1575 1575 1576 1576 1577
1528 1520 1513 1512 1513 1511 1512 1515 1516 1516 1516 1520 1521 1520 1523 1526 1528 1531 1535 1538 1542 1545 1549 1551 1555 1557 1559 1561 1563 1565 1566 1567 1568 1570 1571 1572 1572 1573 1573 1574 1574 1574 1574 1574 1575 1575 1576 1576 1577
1530 1520 1513 1512 1514 1510 1512 1514 1516 1518 1519 1520 1521 1522 1524 1525 1528 1532 1535 1539 1542 1545 1549 1552 1555 1558 1561 1563 1563 1565 1566 1567 1569 1570 1571 1572 1574 1574 1574 1574 1574 1574 1574 1574 1575 1575 1575 1576 1576
1526 1516 1512 1512 1512 1511 1512 1514 1515 1516 1516 1518 1521 1523 1524 1525 1528 1532 1535 1538 1541 1545 1549 1552 1555 1557 1561 1563 1564 1566 1568 1568 1570 1571 1572 1573 1573 1573 1574 1573 1574 1574 1574 1574 1574 1574 1575 1576 1577
1522 1516 1512 1513 1513 1513 1512 1512 1514 1514 1512 1516 1519 1521 1523 1525 1529 1532 1535 1538 1541 1544 1548 1551 1554 1557 1560 1562 1564 1566 1567 1568 1570 1570 1571 1572 1573 1573 1574 1574 1574 1573 1573 1574 1574 1574 1575 1576 1576
1520 1516 1515 1514 1514 1513 1512 1511 1512 1514 1515 1518 1519 1520 1523 1525 1528 1531 1535 1538 1541 1544 1547 1551 1553 1556 1559 1561 1563 1565 1567 1568 1569 1570 1571 1572 1572 1572 1572 1572 1573 1573 1573 1573 1573 1573 1573 1574 1574
1518 1515 1514 1513 1513 1512 1512 1511 1512 1513 1516 1517 1518 1520 1522 1524 1528 1531 1534 1537 1541 1544 1546 1550 1552 1555 1558 1560 1562 1565 1566 1568 1569 1569 1570 1571 1572 1571 1571 1571 1570 1572 1572 1572 1572 1572 1572 1572 1573
1514 1513 1512 1511 1511 1511 1511 1509 1511 1512 1515 1516 1517 1518 1521 1523 1527 1530 1534 1537 1540 1543 1546 1549 1552 1554 1557 1560 1562 1564 1566 1567 1569 1569 1570 1570 1571 1570 1570 1570 1570 1571 1571 1571 1571 1572 1571 1572 1572
1515 1511 1507 1507 1509 1509 1510 1505 1507 1511 1514 1515 1517 1518 1521 1523 1526 1529 1532 1536 1539 1542 1545 1548 1551 1554 1557 1559 1562 1564 1566 1567 1568 1569 1569 1569 1570 1569 1569 1570 1570 1570 1570 1570 1570 1571 1571 1571 1572
1509 1505 1502 1502 1506 1508 1510 1504 1507 1511 1513 1514 1516 1518 1520 1523 1526 1528 1531 1534 1538 1541 1544 1547 1551 1554 1556 1559 1561 1563 1565 1567 1568 1569 1569 1569 1569 1569 1569 1569 1569 1569 1570 1570 1570 1571 1571 1571 1571
1501 1502 1501 1500 1504 1504 1505 1503 1506 1510 1511 1513 1515 1517 1520 1522 1525 1527 1530 1533 1536 1539 1542 1546 1550 1553 1556 1558 1561 1562 1564 1566 1568 1568 1569 1568 1568 1568 1569 1569 1568 1568 1569 1570 1570 1570 1570 1571 1571
1507 1503 1501 1500 1499 1502 1502 1501 1503 1508 1510 1511 1514 1517 1519 1521 1523 1526 1529 1532 1535 1538 1540 1545 1548 1552 1555 1557 1559 1561 1564 1566 1567 1568 1568 1568 1568 1568 1568 1568 1567 1569 1569 1569 1569 1569 1569 1569 1569
1503 1503 1501 1498 1499 1500 1499 1499 1500 1505 1508 1510 1513 1515 1517 1519 1522 1524 1527 1530 1533 1536 1539 1543 1546 1550 1553 1556 1559 1561 1563 1565 1566 1567 1567 1567 1567 1567 1567 1568 1567 1568 1568 1568 1569 1569 1569 1569 1569
1500 1501 1497 1496 1499 1500 1497 1497 1498 1502 1505 1508 1510 1513 1515 1517 1520 1521 1525 1528 1531 1534 1538 1541 1545 1548 1552 1555 1558 1560 1563 1565 1566 1567 1566 1567 1567 1567 1568 1567 1568 1568 1567 1567 1567 1567 1569 1569 1568
1496 1497 1497 1498 1496 1497 1497 1494 1497 1499 1503 1506 1508 1510 1512 1514 1516 1519 1522 1525 1528 1532 1536 1540 1543 1547 1551 1554 1557 1560 1561 1563 1565 1565 1566 1566 1566 1567 1567 1567 1568 1567 1568 1568 1567 1567 1567 1568 1568
1497 1493 1496 1497 1497 1493 1498 1497 1493 1494 1499 1502 1505 1507 1509 1512 1514 1517 1520 1523 1526 1530 1534 1538 1541 1545 1549 1553 1556 1558 1561 1563 1564 1565 1565 1565 1565 1566 1566 1567 1567 1567 1568 1567 1567 1566 1566 1566 1568
1494 1495 1495 1495 1496 1495 1493 1495 1488 1491 1493 1495 1499 1503 1506 1509 1512 1515 1518 1521 1525 1528 1532 1536 1540 1544 1548 1551 1554 1557 1559 1562 1563 1563 1564 1564 1564 1565 1565 1566 1566 1566 1567 1566 1565 1565 1565 1566 1567
1495 1496 1495 1493 1490 1498 1496 1498 1492 1485 1488 1490 1494 1500 1504 1507 1510 1513 1517 1520 1524 1527 1531 1534 1538 1542 1546 1549 1552 1555 1557 1559 1561 1561 1562 1563 1563 1563 1564 1564 1565 1565 1566 1565 1565 1565 1565 1565 1564
1495 1496 1499 1499 1498 1497 1494 1494 1490 1484 1486 1489 1492 1497 1501 1505 1508 1511 1515 1518 1522 1525 1529 1532 1536 1540 1543 1547 1550 1552 1555 1557 1558 1560 1561 1561 1562 1562 1562 1563 1563 1564 1564 1564 1564 1563 1564 1564 1563
1491 1492 1505 1513 1506 1495 1489 1491 1484 1484 1487 1490 1492 1495 1499 1503 1506 1510 1513 1517 1520 1523 1527 1530 1534 1537 1541 1544 1547 1550 1552 1554 1556 1557 1559 1559 1560 1561 1560 1560 1561 1561 1562 1562 1562 1563 1563 1562 1562
1490 1488 1484 1494 1494 1498 1489 1484 1480 1484 1486 1489 1491 1494 1498 1501 1505 1508 1511 1515 1518 1521 1525 1528 1531 1535 1538 1541 1544 1547 1549 1551 1553 1554 1555 1557 1557 1557 1557 1557 1558 1559 1559 1560 1560 1561 1561 1560 1560
1487 1484 1489 1493 1506 1506 1495 1488 1484 1484 1485 1487 1490 1493 1496 1500 1503 1506 1509 1513 1516 1520 1523 1526 1530 1532 1536 1539 1541 1544 1546 1548 1550 1551 1552 1553 1554 1554 1554 1555 1556 1556 1557 1557 1558 1558 1558 1558 1558
1490 1490 1488 1487 1492 1503 1504 1492 1477 1481 1483 1485 1488 1491 1494 1498 1501 1504 1507 1511 1514 1518 1521 1524 1527 1529 1532 1535 1538 1541 1543 1545 1546 1547 1548 1549 1550 1551 1551 1552 1553 1553 1554 1554 1555 1555 1556 1555 1556
1482 1482 1486 1495 1495 1493 1496 1490 1477 1480 1483 1485 1487 1490 1493 1496 1499 1502 1505 1509 1512 1515 1518 1521 1524 1526 1529 1532 1535 1537 1539 1540 1542 1543 1544 1545 1546 1547 1548 1548 1549 1550 1550 1551 1551 1552 1552 1552 1552